FW1946 Weather Reports


time (UTC)temp
C
wind
direction
speed
KPH
gust
KPH
rain 1hr
cm
rain 24hr
cm
rain mn
cm
humidity
%
barometer
mb
20260508104532 6 180 0.0 0.0 0.00 0.00 0.00 78 1016.9
20260508103107 7 180 0.0 0.0 0.00 0.00 0.00 75 1016.9
20260508101535 8 183 0.0 3.2 0.00 0.00 0.00 74 1017.0
20260508100034 7 187 1.6 4.8 0.00 0.00 0.00 75 1016.9
20260508094536 7 193 0.0 4.8 0.00 0.00 0.00 74 1016.9
20260508093107 7 202 0.0 0.0 0.00 0.00 0.00 72 1016.8
20260508091530 8 198 0.0 3.2 0.00 0.00 0.00 70 1016.8
20260508090031 8 180 0.0 3.2 0.00 0.00 0.00 68 1016.7
20260508080037 10 292 0.0 1.6 0.00 0.00 0.00 55 1016.8
20260508074537 13 292 0.0 0.0 0.00 0.00 0.00 49 1016.8
20260508073035 13 277 0.0 12.9 0.00 0.00 0.00 47 1016.8
20260508071536 13 318 0.0 9.7 0.00 0.00 0.00 46 1016.7
20260508070035 14 290 0.0 8.0 0.00 0.00 0.00 46 1016.7
20260508064653 14 243 0.0 9.7 0.00 0.00 0.00 46 1016.7
20260508063031 15 251 0.0 9.7 0.00 0.00 0.00 46 1016.7
20260508061606 15 267 0.0 8.0 0.00 0.00 0.00 45 1016.7
20260508060030 15 252 0.0 9.7 0.00 0.00 0.00 44 1016.8
20260508054536 15 259 1.6 11.3 0.00 0.00 0.00 44 1016.8
20260508053032 15 267 0.0 6.4 0.00 0.00 0.00 44 1016.8
20260508051534 16 242 0.0 8.0 0.00 0.00 0.00 43 1016.8
20260508050035 16 275 1.6 12.9 0.00 0.00 0.00 44 1016.7
20260508044536 16 280 1.6 14.5 0.00 0.00 0.00 44 1016.6
20260508043030 16 272 1.6 9.7 0.00 0.00 0.00 44 1016.6
20260508041539 16 247 0.0 9.7 0.00 0.00 0.00 43 1016.6
20260508040032 16 253 0.0 11.3 0.00 0.00 0.00 42 1016.3
20260508034642 16 257 0.0 9.7 0.00 0.00 0.00 40 1016.2
20260508033031 16 281 0.0 8.0 0.00 0.00 0.00 38 1016.1
20260508031537 17 296 0.0 9.7 0.00 0.00 0.00 34 1016.0
20260508023030 18 298 1.6 20.9 0.00 0.00 0.00 29 1015.7
20260508021651 18 281 1.6 17.7 0.00 0.00 0.00 28 1015.6
20260508020033 19 285 3.2 14.5 0.00 0.00 0.00 27 1015.6
20260508014534 20 287 3.2 17.7 0.00 0.00 0.00 26 1015.5
20260508013030 20 284 3.2 19.3 0.00 0.00 0.00 26 1015.5
20260508011607 20 291 3.2 12.9 0.00 0.00 0.00 25 1015.7
20260508010107 20 293 4.8 24.1 0.00 0.00 0.00 25 1015.8
20260508004528 20 293 4.8 22.5 0.00 0.00 0.00 24 1015.7
20260508003033 20 288 3.2 22.5 0.00 0.00 0.00 24 1015.7
20260508001607 21 299 4.8 22.5 0.00 0.00 0.00 24 1015.7
20260507234530 21 299 4.8 19.3 0.00 0.00 0.00 23 1015.7
20260507233031 21 289 4.8 17.7 0.00 0.00 0.00 23 1015.7
20260507230035 21 282 4.8 20.9 0.00 0.00 0.00 27 1015.9
20260507224535 21 289 4.8 24.1 0.00 0.00 0.00 29 1016.0
20260507223133 21 279 4.8 20.9 0.00 0.00 0.00 30 1016.1
20260507221535 20 286 4.8 30.6 0.00 0.00 0.00 32 1016.3
20260507220038 20 286 4.8 24.1 0.00 0.00 0.00 33 1016.4
20260507214607 20 295 6.4 24.1 0.00 0.00 0.00 36 1016.7
20260507213035 20 290 4.8 22.5 0.00 0.00 0.00 38 1016.8
20260507210111 20 282 4.8 19.3 0.00 0.00 0.00 39 1016.9
20260507204530 20 288 4.8 20.9 0.00 0.00 0.00 39 1017.0
20260507203033 20 287 4.8 24.1 0.00 0.00 0.00 40 1017.1
20260507201538 20 282 4.8 22.5 0.00 0.00 0.00 41 1017.3
20260507200032 20 294 4.8 17.7 0.00 0.00 0.00 41 1017.5
20260507193037 20 283 4.8 22.5 0.00 0.00 0.00 45 1017.8
20260507191605 18 282 3.2 14.5 0.00 0.00 0.00 47 1018.0
20260507190035 18 285 4.8 27.4 0.00 0.00 0.00 48 1018.4
20260507183037 18 281 3.2 17.7 0.00 0.00 0.00 51 1018.9
20260507180107 17 277 1.6 12.9 0.00 0.00 0.00 55 1019.1
20260507174537 16 275 4.8 19.3 0.00 0.00 0.00 56 1019.2
20260507173035 16 292 4.8 19.3 0.00 0.00 0.00 59 1019.3
20260507171605 15 303 6.4 22.5 0.00 0.00 0.00 60 1019.3
20260507170033 15 303 6.4 24.1 0.00 0.00 0.00 61 1019.2
20260507164535 15 293 4.8 27.4 0.00 0.00 0.00 63 1019.5
20260507161533 14 276 4.8 25.7 0.00 0.00 0.00 65 1019.6
20260507160037 13 275 3.2 19.3 0.00 0.00 0.00 67 1019.7
20260507154535 13 276 3.2 17.7 0.00 0.00 0.00 68 1019.8
20260507153111 13 281 3.2 14.5 0.00 0.00 0.00 70 1019.8
20260507151537 13 285 3.2 17.7 0.00 0.00 0.00 71 1019.9
20260507144534 12 283 3.2 16.1 0.00 0.00 0.00 76 1020.1
20260507143031 11 288 3.2 16.1 0.00 0.00 0.00 79 1020.0
20260507141535 11 296 3.2 20.9 0.00 0.00 0.00 78 1020.0
20260507140033 11 321 6.4 20.9 0.00 0.00 0.00 78 1019.8
20260507134535 11 315 6.4 20.9 0.00 0.00 0.00 79 1019.5
20260507131535 11 321 4.8 19.3 0.00 0.00 0.00 81 1019.3
20260507130032 11 311 3.2 17.7 0.00 0.00 0.00 81 1019.2
20260507124604 11 309 3.2 17.7 0.00 0.00 0.00 80 1019.1
20260507121607 11 311 4.8 20.9 0.00 0.00 0.00 79 1019.3
20260507120033 11 306 3.2 17.7 0.00 0.00 0.00 79 1019.3
20260507113035 11 295 3.2 19.3 0.00 0.00 0.00 79 1019.2
20260507110108 12 296 3.2 20.9 0.00 0.00 0.00 79 1019.0